Voltar ao catálogo

THORAD AGENA D DEB

AtivoSSO
NORAD 4859·DEBRIS·🇺🇸 United States

Lançado Apr 8, 1970 de Vandenberg Space Force Base

Loading…

Próximas Passagens (próximas 24 horas)

TLE

AtualizadoSource: Space-Track

Época: Sep 14, 2026, 18:26 UTC

1 04859U 70025EP  26257.76866844  .00000277  00000-0  42141-3 0  9992
2 04859  99.9487 358.2736 0047152  80.1966  82.3880 13.61302950779908

Acompanhe THORAD AGENA D DEB em tempo real com AllMySat

Download on the App Store